Showing default

AISAT, 40054

Orbit data source: Space-Track

AISAT, 40054 is a payload satellite owned by DLR (DE) in SSO that was launched on Mon, 30 Jun 2014 UTC via a PSLV launch vehicle from the Sirharikota (SRI). Payload-class satellites include a variety of spacecraft equipped with specific instruments for various scientific and technological missions. These include communications satellites like Starlink; space stations such as the ISS; scientific satellites like the Hubble; Earth observation satellites from companies like Planet Labs, Umbra, and HawkEye 360; GPS; miniature CubeSats for education and research; and military/defense satellites.

Loading next visibility...
Identifier
40054, 2014-034B
Orbit
SSO
Last TLE update
7 hours ago
Origin
Manufacturer
DLR-ISS
Mission
Non-operational Civil Communications
Bus & Motor
CLAVIS, Unknown motor
Mass
10 kg wet, 10 kg dry
Launch date (UTC)
2014-06-30 (11 years ago)
Launch vehicle
PSLV
Launch site
Sirharikota (SRI)
Object type
Payload
Rocket body
Debris
Shape & HBR
Box + 1 Truss, 4 m
Radar Cross Section
0.040 m², Medium (>0.1 m² and < 1m²)

Expand to show TLE details & history

TLE from 7 hours ago
0 AISAT
1 40054U 14034B   25109.71989616  .00011865  00000-0  98545-3 0  9994
2 40054  98.2934 348.8225 0008832 191.5403 168.5616 14.98895109583571
Epoch: 2025-04-19T17:16Z
Definitive object data (Epoch: 2025-04-19T17:16:39.028Z)
Latitude
-0.0001°
Longitude
-118.39915°
Altitude
579.36 km
Speed
7.568 km/s
True Right ascension
23h 15m 17s
True Declination
0° 00' 00"
Sunlit
Object was in daylight at TLE epoch
Visualization TLE readout
Latitude
28.29558°
Longitude
66.39073°
Altitude
569.102 km
Speed
7.582 km/s
Apparent Right ascension
14h 44m 57s
Apparent Declination
-7° 32' 36"
Sunlit
Object is in full shadow
Visualization observer readout
Local Sidereal Time
07:14:31
Azimuth
81.067° E
Elevation
-22.119°
Doppler factor
1
Orbital elements
Apogee altitude
573.477 km
Perigee altitude
561.208 km
Semi-major axis
6,945.48 km
Eccentricity
0.0008832
Inclination
98.2934°
RAAN
348.8225°
Arg. of periapsis
191.5403°
True anomaly
168.58165°
Mean anomaly
168.5616°
Eccentric anomaly
168.57163°
Mean motion
3.74964 °/min
BSTAR
0.00098545
Orbital period
96.01 mins
Loading maneuver chart data...
Loading SW <> Apogee altitude chart data...
Loading historical data...
Loading historical data...
Loading historical data...
Loading historical data...
Loading historical data...
Loading historical data...
Loading historical data...
Other satellites on launch #34 in the year 2014 (2014-06-30 UTC)

AISAT Visibility forecast

Observer location: undefined°, undefined°

Span
Click to sort rows by Start time (UTC) header in descending order
Start Az.
Max El. time (UTC)
Max El. Az.
Max El.
End time (UTC)
End Az.
6 mins2025-04-20 05:03:35.550Z1.983° NNE2025-04-20 05:06:35.550Z288.41° WNW40.479°2025-04-20 05:09:35.550Z210.348° SW
6 mins2025-04-20 15:50:35.550Z162.759° S2025-04-20 15:53:35.550Z7.767° NNE43.931°2025-04-20 15:56:35.550Z348.673° N
|